Home > Time Zones > World Clock > Weather > Iran > Tehran > Past weeks

Flag for Iran Weather past 2 weeks in Tehran, Iran

Now
84 °F

Clear.


Feels Like: 81 °F
Forecast: 78 / 96 °F
Wind: 5 mph from Northwest

Location: Tehran-Mehrabad

Current Time: Jul 29, 2015 at 7:57:32 AM

Latest Report: Jul 29, 2015 at 7:30 AM


Visibility: 10 mi

Pressure: 29.89 "Hg (26.16 "Hg at 1179m altitude)

Humidity: 18%

Dew point: 36 °F

Location of TehranLocation

Historic Weather in Tehran — Graph

°F

Tehran temperature yesterday

Maximum temperature yesterday: 99 °F (at 3:00 PM)
Minimum temperature yesterday: 81 °F (at 4:00 AM)
Average temperature yesterday: 90 °F

Past Weeks' High & Low Weather Summary

 TemperatureHumidityPressure
High104 °F (Jul 16, 5:00 PM)83% (Jul 19, 8:00 PM)30.07 "Hg (Jul 19, 8:00 PM)
Low64 °F (Jul 20, 5:00 AM)6% (Jul 14, 4:30 PM)29.62 "Hg (Jul 19, 5:30 PM)
Average87 °F22%29.89 "Hg
* Reported Jul 14 6:30 AM — Jul 29 6:30 AM, Tehran, Weather by CustomWeather, © 2015

Note: Actual official high and low records may vary slightly from our data, if they occured in-between our weather recording intervals... More about our weather records

Advertising

Tehran weather history for previous 24 hours

 ConditionsComfort  
Time TempWeatherWind HumidityBarometerVisibility
6:30 AM
Wed, Jul 29
82 °FPassing clouds.5 mph20%29.89 "HgN/A
6:00 AM82 °FClear.5 mph19%29.89 "Hg10 mi
5:00 AM82 °FClear.No wind19%29.86 "Hg10 mi
4:30 AM84 °FClear.No wind19%29.86 "Hg10 mi
4:00 AM86 °FClear.5 mph15%29.86 "Hg10 mi
3:30 AM86 °FClear.7 mph14%29.83 "Hg10 mi
2:00 AM88 °FClear.5 mph13%29.83 "Hg10 mi
1:30 AM88 °FClear.7 mph13%29.83 "Hg10 mi
1:00 AM88 °FClear.5 mph15%29.83 "Hg10 mi
12:30 AM88 °FClear.No wind17%29.83 "Hg10 mi
12:00 AM88 °FClear.5 mph18%29.80 "Hg10 mi
11:30 PM
Tue, Jul 28
86 °FClear.5 mph24%29.80 "Hg10 mi
10:30 PM88 °FClear.No wind21%29.77 "Hg10 mi
10:00 PM90 °FClear.No wind18%29.77 "Hg10 mi
9:30 PM93 °FSunny.No wind13%29.77 "Hg10 mi
8:30 PM97 °FPassing clouds.No wind9%29.74 "HgN/A
8:00 PM97 °FPassing clouds.5 mph9%29.74 "HgN/A
7:30 PM99 °FPassing clouds.5 mph8%29.74 "HgN/A
7:00 PM99 °FPassing clouds.5 mph8%29.74 "HgN/A
6:30 PM99 °FPassing clouds.5 mph9%29.74 "HgN/A
6:00 PM99 °FPassing clouds.7 mph9%29.77 "HgN/A
5:30 PM99 °FPassing clouds.9 mph9%29.77 "HgN/A
5:00 PM99 °FPassing clouds.No wind9%29.77 "HgN/A
4:30 PM99 °FPassing clouds.No wind9%29.77 "HgN/A
4:00 PM99 °FPassing clouds.9 mph9%29.80 "HgN/A
3:30 PM97 °FPassing clouds.7 mph9%29.80 "HgN/A
3:00 PM99 °FPassing clouds.9 mph9%29.80 "HgN/A
2:30 PM97 °FPassing clouds.12 mph10%29.80 "HgN/A
2:00 PM97 °FPassing clouds.7 mph9%29.83 "HgN/A
1:30 PM95 °FPassing clouds.5 mph10%29.83 "HgN/A
1:00 PM95 °FPassing clouds.5 mph10%29.83 "HgN/A
12:30 PM93 °FPassing clouds.7 mph10%29.83 "HgN/A
12:00 PM93 °FPassing clouds.5 mph11%29.86 "HgN/A
11:30 AM91 °FPassing clouds.9 mph11%29.86 "HgN/A
11:00 AM91 °FPassing clouds.5 mph10%29.86 "HgN/A
10:30 AM90 °FPassing clouds.5 mph11%29.86 "HgN/A
10:00 AM90 °FSunny.7 mph11%29.86 "Hg10 mi
9:30 AM88 °FSunny.5 mph13%29.86 "Hg10 mi
9:00 AM86 °FSunny.7 mph17%29.86 "Hg10 mi
8:30 AM84 °FSunny.12 mph22%29.86 "Hg10 mi
8:00 AM88 °FSunny.No wind19%29.83 "Hg10 mi
7:30 AM84 °FClear.5 mph22%29.83 "Hg10 mi
7:00 AM82 °FClear.5 mph23%29.83 "Hg10 mi
Weather by CustomWeather, © 2015

See weather overviewHow to use our weather pages